[[{"header":{"parameterUnit":"m.s-1","parameterCategory":1,"la1":30.2991,"la2":30.254,"lo1":-89.0895,"lo2":-89.0444,"dy":0.0017,"dx":0.0017,"nx":28,"ny":28,"refTime":"2025-08-29T21:00:00:Z","depth":0,"parameterNumber":2,"parameterNumberName":"U-component_of_WINDS"},"data":[0,0,0,0,0,0,0,0,0,0,0,0,0,0,0,0,0,0,0,0,0,0,0,0,0,0,0,0,0,0,0,0,0,0,0,0,0,0,0,0,0,0,0,0,0,0,0,0,0,0,0,0,0,0,0,0,0,0,1.6117,1.6117,0,1.6103,1.6103,1.6102,1.6057,1.6056,1.6055,1.6054,1.6042,1.6042,1.6043,0,0,0,0,0,0,0,0,0,0,0,0,0,1.6109,1.6109,1.6117,1.6117,1.6117,1.6103,1.6103,1.6102,1.6057,1.6056,1.6055,1.6054,1.6042,1.6042,1.6043,0,0,0,0,0,0,0,0,0,0,0,0,0,1.6105,1.6109,1.6117,1.6093,1.609,1.6103,1.6103,1.6102,1.6058,1.6056,1.6055,1.6053,1.6041,1.6042,1.6043,1.6079,0,0,1.6046,1.6046,0,0,0,0,0,0,0,0,1.6106,1.6106,1.6096,1.6094,1.6092,1.608,1.6095,1.6095,1.6058,1.607,1.6054,1.6053,1.6056,1.6056,1.6056,1.6078,1.6078,1.6046,1.6047,1.6047,1.6047,0,0,0,0,0,0,0,1.6106,1.6106,1.6111,1.6096,1.6094,1.6083,1.6081,1.6095,1.6072,1.6069,1.6066,1.6065,1.6054,1.6056,1.6056,1.6078,1.6046,1.6047,1.6047,1.6048,1.6129,1.613,0,0,0,0,0,0,1.6109,1.6106,1.6112,1.6111,1.6095,1.6085,1.6082,1.6086,1.6072,1.6068,1.6066,1.6062,1.6055,1.6055,1.6055,1.6095,1.6047,1.6048,1.6048,1.6127,1.6129,1.6131,0,0,0,0,0,0,1.6109,1.611,1.6113,1.6108,1.6107,1.6086,1.609,1.6086,1.6087,1.6069,1.6065,1.6071,1.6054,1.6054,1.6073,1.6094,1.6048,1.6049,1.6125,1.6128,1.613,1.6177,0,0,0,0,0,0,1.6109,1.611,1.6123,1.6108,1.6108,1.613,1.6092,1.6087,1.6088,1.6084,1.6073,1.6069,1.6052,1.6072,1.6074,1.6095,1.605,1.6123,1.6126,1.6129,1.6173,1.6181,1.6187,0,0,0,0,0,1.6109,1.6137,1.6124,1.6125,1.6123,1.6131,1.6131,1.611,1.609,1.6103,1.6092,1.607,1.6092,1.6074,1.6076,1.6098,1.6122,1.6125,1.6129,1.617,1.6179,1.6187,0,0,0,0,0,0,1.6155,1.6135,1.612,1.6144,1.614,1.6124,1.6139,1.612,1.6122,1.6118,1.6093,1.6091,1.6114,1.6108,1.6089,1.6132,1.6103,1.6107,1.6134,1.6143,1.6149,1.615,1.6051,0,0,0,0,0,1.6169,1.6176,1.6158,1.6182,1.618,1.616,1.6163,1.6148,1.6142,1.6141,1.6131,1.6127,1.6133,1.6138,1.6143,1.6173,1.617,1.6189,1.6196,1.6201,1.6205,1.622,1.6228,1.6142,1.6142,1.6142,0,0,1.6196,1.6185,1.6192,1.6191,1.6185,1.6195,1.6159,1.617,1.6177,1.6143,1.616,1.6153,1.6147,1.6172,1.6183,1.6168,1.6228,1.6206,1.621,1.6211,1.6225,1.6233,1.624,1.6145,1.6144,1.6144,0,0,1.6249,1.6242,1.6261,1.6256,1.6249,1.6236,1.624,1.6227,1.6221,1.6238,1.6212,1.6221,1.6232,1.6229,1.6229,1.6283,1.6263,1.6285,1.632,1.6336,1.6342,1.6348,1.6367,1.6374,1.6289,1.6289,1.6289,0,1.6284,1.6296,1.6273,1.6286,1.6286,1.6255,1.6274,1.6271,1.6266,1.6267,1.6251,1.6264,1.6259,1.6282,1.6296,1.6297,1.6302,1.6286,1.6343,1.6349,1.6354,1.6372,1.6379,1.6292,1.6292,1.6291,1.6291,0,1.6339,1.6348,1.6364,1.6358,1.6361,1.6377,1.6357,1.6363,1.6348,1.6336,1.6354,1.6347,1.6349,1.6354,1.6339,1.6376,1.6367,1.6348,1.6318,1.6365,1.6381,1.6388,1.6296,1.6295,1.6294,1.6293,0,0,1.642,1.6402,1.6408,1.6406,1.6396,1.6402,1.6418,1.6419,1.6425,1.6423,1.6435,1.6446,1.6427,1.6428,1.6413,1.6427,1.6469,1.6405,1.6405,1.6417,1.6509,1.6523,1.6531,1.6456,1.6458,1.6459,1.6509,0,1.647,1.6493,1.6473,1.6501,1.6509,1.648,1.6493,1.6489,1.648,1.6486,1.6476,1.6483,1.6459,1.6459,1.6472,1.6461,1.6487,1.6458,1.6468,1.6468,1.6468,1.6539,1.6554,1.6601,1.6515,1.6516,1.6517,0,1.6531,1.6531,1.6559,1.6547,1.655,1.6562,1.6562,1.6568,1.6564,1.6556,1.6556,1.6538,1.6553,1.6525,1.6546,1.6526,1.6529,1.6525,1.6526,1.6525,1.6494,1.6539,1.6616,1.6623,1.6527,1.6526,1.6525,0,1.6586,1.6593,1.6611,1.661,1.6597,1.6606,1.6601,1.6595,1.6597,1.6598,1.66,1.6603,1.6604,1.6608,1.6591,1.6572,1.6613,1.6584,1.6607,1.6608,1.6616,1.6615,1.6693,1.662,1.662,1.662,1.662,0,1.6643,1.6661,1.6635,1.6646,1.6666,1.6644,1.6665,1.6657,1.6652,1.6661,1.6637,1.6647,1.6625,1.6632,1.662,1.6638,1.664,1.6634,1.663,1.6635,1.6636,1.6636,1.6632,1.6622,1.6622,1.6621,1.6621,0,1.6708,1.6691,1.6708,1.6695,1.6692,1.6707,1.6696,1.6705,1.6695,1.6707,1.6709,1.6692,1.67,1.6684,1.669,1.6681,1.6707,1.6699,1.6708,1.6705,1.6729,1.6727,1.6809,1.6818,1.674,1.6741,1.6742,0,1.6745,1.6758,1.6746,1.675,1.6746,1.6753,1.6755,1.6735,1.6739,1.6735,1.6745,1.6751,1.6754,1.6768,1.6757,1.6761,1.6752,1.6781,1.6753,1.6757,1.6751,1.675,1.6751,1.6786,1.6787,1.6788,1.6788,0,1.6812,1.6803,1.6807,1.6808,1.6811,1.6811,1.681,1.6815,1.6793,1.6799,1.6806,1.6809,1.6814,1.682,1.6822,1.6818,1.68,1.6798,1.6803,1.6808,1.6812,1.6809,1.6723,1.6795,1.6795,1.6794,1.6794,1.6794,1.6863,1.6873,1.6866,1.6871,1.6868,1.6867,1.6876,1.6866,1.6871,1.6874,1.6862,1.6872,1.6868,1.6868,1.6866,1.6874,1.6861,1.6869,1.6871,1.6873,1.6877,1.6812,1.6875,1.6875,1.6874,1.6874,1.6874,0,1.6928,1.6922,1.6927,1.6925,1.693,1.6912,1.691,1.6915,1.6923,1.692,1.6924,1.6933,1.6939,1.6928,1.6933,1.6941,1.6933,1.6943,1.6941,1.6941,1.6888,1.6883,1.6949,1.6949,1.6949,1.6949,1.6949,1.6949,1.6962,1.6978,1.6969,1.6984,1.6978,1.6987,1.6987,1.6986,1.6984,1.6994,1.6999,1.6992,1.6986,1.699,1.6995,1.6992,1.6994,1.7007,1.7001,1.6952,1.6945,1.6937,1.6932,1.7008,1.7008,1.7053,1.7053,1.7054]},{"header":{"parameterUnit":"m.s-1","parameterCategory":1,"la1":30.2991,"la2":30.254,"lo1":-89.0895,"lo2":-89.0444,"dy":0.0017,"dx":0.0017,"nx":28,"ny":28,"refTime":"2025-08-29T21:00:00:Z","depth":0,"parameterNumber":3,"parameterNumberName":"V-component_of_WINDS"},"data":[0,0,0,0,0,0,0,0,0,0,0,0,0,0,0,0,0,0,0,0,0,0,0,0,0,0,0,0,0,0,0,0,0,0,0,0,0,0,0,0,0,0,0,0,0,0,0,0,0,0,0,0,0,0,0,0,0,0,-0.8684,-0.8684,0,-0.8733,-0.8734,-0.8734,-0.8796,-0.8797,-0.8798,-0.8799,-0.8848,-0.8848,-0.8849,0,0,0,0,0,0,0,0,0,0,0,0,0,-0.8642,-0.8643,-0.8684,-0.8684,-0.8685,-0.8733,-0.8734,-0.8734,-0.8796,-0.8797,-0.8798,-0.8799,-0.8848,-0.8848,-0.8849,0,0,0,0,0,0,0,0,0,0,0,0,0,-0.8673,-0.8643,-0.8684,-0.8721,-0.8725,-0.8733,-0.8734,-0.8735,-0.8795,-0.8797,-0.8798,-0.88,-0.8848,-0.8848,-0.8849,-0.8823,0,0,-0.8851,-0.8851,0,0,0,0,0,0,0,0,-0.8671,-0.8674,-0.8715,-0.8719,-0.8723,-0.876,-0.8737,-0.8764,-0.8795,-0.8769,-0.8799,-0.88,-0.8817,-0.882,-0.8826,-0.8825,-0.8827,-0.8851,-0.8851,-0.8851,-0.8851,0,0,0,0,0,0,0,-0.8669,-0.8672,-0.8703,-0.8716,-0.8721,-0.8736,-0.8742,-0.8743,-0.8784,-0.8771,-0.8776,-0.8781,-0.882,-0.8826,-0.8828,-0.8828,-0.8851,-0.8851,-0.8851,-0.8852,-0.8811,-0.881,0,0,0,0,0,0,-0.8661,-0.867,-0.8702,-0.8705,-0.87,-0.8735,-0.8742,-0.8747,-0.8784,-0.8791,-0.8779,-0.8783,-0.8824,-0.8827,-0.883,-0.8805,-0.8851,-0.8852,-0.8852,-0.8812,-0.8811,-0.8809,0,0,0,0,0,0,-0.866,-0.8663,-0.87,-0.8689,-0.8695,-0.8734,-0.8739,-0.8747,-0.8753,-0.8791,-0.8798,-0.8778,-0.8825,-0.8829,-0.8825,-0.8807,-0.8852,-0.8853,-0.8814,-0.8812,-0.881,-0.8752,0,0,0,0,0,0,-0.8658,-0.8662,-0.8653,-0.8688,-0.8695,-0.8694,-0.8738,-0.8747,-0.8754,-0.876,-0.8791,-0.8798,-0.8827,-0.8824,-0.8826,-0.8809,-0.8853,-0.8816,-0.8813,-0.8811,-0.8756,-0.8748,-0.8742,0,0,0,0,0,-0.8657,-0.8634,-0.8652,-0.8656,-0.8684,-0.8693,-0.8697,-0.8731,-0.8752,-0.8743,-0.8768,-0.8797,-0.8808,-0.8823,-0.8825,-0.8808,-0.8817,-0.8814,-0.8811,-0.8759,-0.875,-0.8742,0,0,0,0,0,0,-0.8595,-0.8639,-0.866,-0.8648,-0.8666,-0.8703,-0.8693,-0.8719,-0.8731,-0.8736,-0.8777,-0.8784,-0.8775,-0.8791,-0.8806,-0.8787,-0.8817,-0.8814,-0.8777,-0.8768,-0.8761,-0.8759,-0.8854,0,0,0,0,0,-0.858,-0.8583,-0.8622,-0.8607,-0.8616,-0.8652,-0.8657,-0.8682,-0.8702,-0.871,-0.8734,-0.8753,-0.8761,-0.8765,-0.8774,-0.8758,-0.8767,-0.8748,-0.874,-0.8734,-0.8732,-0.8727,-0.8719,-0.8799,-0.8799,-0.8799,0,0,-0.8549,-0.8574,-0.8573,-0.8596,-0.8613,-0.8616,-0.8659,-0.8659,-0.8662,-0.871,-0.8709,-0.8727,-0.875,-0.874,-0.8737,-0.8753,-0.8712,-0.873,-0.8725,-0.8726,-0.8723,-0.8715,-0.8708,-0.8796,-0.8797,-0.8797,0,0,-0.8495,-0.8513,-0.8505,-0.8521,-0.8547,-0.8571,-0.8569,-0.8602,-0.8617,-0.8616,-0.8652,-0.8656,-0.8668,-0.8684,-0.8694,-0.8647,-0.8675,-0.8648,-0.8612,-0.8606,-0.86,-0.8595,-0.858,-0.8574,-0.8645,-0.8645,-0.8645,0,-0.8454,-0.846,-0.8496,-0.8496,-0.8505,-0.855,-0.8542,-0.8555,-0.8582,-0.8588,-0.8606,-0.8624,-0.8642,-0.8638,-0.8627,-0.8632,-0.8632,-0.8646,-0.8598,-0.8593,-0.8589,-0.8575,-0.8569,-0.8642,-0.8642,-0.8643,-0.8643,0,-0.8409,-0.8412,-0.8402,-0.8428,-0.8436,-0.8432,-0.8468,-0.8472,-0.8496,-0.8519,-0.8518,-0.8542,-0.8558,-0.8558,-0.8581,-0.8557,-0.8567,-0.8591,-0.8623,-0.8578,-0.8566,-0.8561,-0.8637,-0.8639,-0.864,-0.864,0,0,-0.8318,-0.8365,-0.8361,-0.8374,-0.8406,-0.841,-0.8407,-0.8424,-0.8427,-0.8444,-0.8444,-0.8454,-0.8477,-0.8487,-0.8512,-0.8507,-0.8471,-0.8532,-0.8533,-0.8522,-0.8449,-0.8432,-0.8426,-0.8489,-0.8488,-0.8487,-0.8448,0,-0.8271,-0.8271,-0.8304,-0.8295,-0.83,-0.8342,-0.834,-0.8359,-0.8381,-0.8388,-0.8412,-0.8419,-0.8447,-0.8455,-0.8451,-0.8476,-0.8457,-0.8479,-0.8491,-0.8491,-0.8486,-0.8419,-0.8401,-0.8363,-0.8443,-0.8442,-0.8442,0,-0.8217,-0.8232,-0.8223,-0.8257,-0.8261,-0.8258,-0.8277,-0.8283,-0.8306,-0.8322,-0.8335,-0.8364,-0.8365,-0.8393,-0.8396,-0.841,-0.8417,-0.843,-0.8429,-0.8433,-0.8465,-0.8423,-0.8351,-0.8346,-0.8434,-0.8435,-0.8435,0,-0.8155,-0.8172,-0.817,-0.818,-0.8218,-0.8216,-0.8232,-0.8257,-0.8265,-0.8281,-0.8287,-0.8302,-0.8311,-0.8322,-0.8355,-0.8373,-0.8354,-0.8385,-0.8369,-0.8368,-0.8365,-0.8365,-0.8294,-0.8365,-0.8365,-0.8365,-0.8365,0,-0.81,-0.8094,-0.8143,-0.8142,-0.8136,-0.8174,-0.8167,-0.8187,-0.8209,-0.8213,-0.8249,-0.8252,-0.8294,-0.8302,-0.8327,-0.8326,-0.8329,-0.8343,-0.835,-0.8341,-0.834,-0.8347,-0.8352,-0.8364,-0.8364,-0.8364,-0.8365,0,-0.803,-0.8063,-0.8063,-0.81,-0.8109,-0.8104,-0.8135,-0.8136,-0.816,-0.8164,-0.8167,-0.8205,-0.8216,-0.8249,-0.8268,-0.8285,-0.8278,-0.829,-0.827,-0.8275,-0.8258,-0.826,-0.8191,-0.8185,-0.8257,-0.8257,-0.8256,0,-0.7995,-0.7991,-0.8028,-0.8033,-0.8048,-0.8056,-0.8065,-0.8102,-0.811,-0.8137,-0.8134,-0.8148,-0.8162,-0.8177,-0.8206,-0.8222,-0.8236,-0.8211,-0.8238,-0.823,-0.8238,-0.8239,-0.8239,-0.8205,-0.8204,-0.8203,-0.8203,0,-0.7929,-0.7945,-0.7957,-0.7974,-0.7984,-0.8,-0.8017,-0.8019,-0.8061,-0.8068,-0.808,-0.8091,-0.8111,-0.8125,-0.8145,-0.8162,-0.819,-0.8194,-0.8191,-0.8183,-0.8173,-0.818,-0.8256,-0.8195,-0.8196,-0.8197,-0.8197,-0.8197,-0.7876,-0.7876,-0.7902,-0.7914,-0.7931,-0.7947,-0.795,-0.7975,-0.7986,-0.8006,-0.8027,-0.8037,-0.8061,-0.8091,-0.8106,-0.8115,-0.813,-0.8125,-0.8124,-0.8123,-0.812,-0.8169,-0.8118,-0.8119,-0.8119,-0.8119,-0.8119,0,-0.7814,-0.7833,-0.7844,-0.7868,-0.7878,-0.7903,-0.7924,-0.7931,-0.7939,-0.796,-0.7973,-0.7988,-0.8002,-0.8032,-0.8049,-0.805,-0.8064,-0.8054,-0.8055,-0.8059,-0.8105,-0.8106,-0.8043,-0.8043,-0.8043,-0.8043,-0.8043,-0.8043,-0.7783,-0.7785,-0.7804,-0.7814,-0.7834,-0.7844,-0.7854,-0.787,-0.7887,-0.7901,-0.7914,-0.7933,-0.7958,-0.7977,-0.7992,-0.8,-0.8006,-0.7992,-0.8005,-0.8048,-0.8055,-0.8062,-0.8064,-0.7992,-0.7992,-0.7959,-0.7958,-0.7958]}]]